Location: Newark
(51.0500°N, 12.4500°E)
Time: 01:07:39
(UTC+00:00)

Tiros 1 - Pass Details

Date: 26 February 2020
Orbit: 630 x 664 km, 48.4° (Epoch: 28 March)

Event Time Altitude Azimuth Distance (km) Brightness Sun altitude
Rises 02:42:36 0° 264° (W) 2,929 - -31.4°
Reaches altitude 10° 02:44:56 10° 262° (W) 2,016 - -31.1°
Maximum altitude 02:49:31 64° 181° (S) 701 - -30.5°
Exits shadow 02:51:42 30° 110° (ESE) 1,137 8.7 -30.2°
Drops below altitude 10° 02:54:05 10° 101° (E) 2,008 10.3 -29.8°
Sets 02:56:25 0° 98° (E) 2,915 11.3 -29.5°
